SKW4087 KLAX-KSAN

Flight info

Callsign SKW4087
Flight time 0h 27m
Altitude 13000
Route LAXX1 MZB
Aircraft E170/M-VGDW/C

Departure

Time 2026-04-20 00:40
Airport Los Angeles International Airport (KLAX)

Arrival

Time 2026-04-20 01:07
Airport San Diego International Airport (KSAN)
Time Latitude Longitude Altitude Speed Heading
2026-04-20 00:25 33.94606 -118.40330 90 ft 0 kts 248°
2026-04-20 00:31 33.94608 -118.40323 91 ft 2 kts 248°
2026-04-20 00:31 33.94615 -118.40302 94 ft 3 kts 248°
2026-04-20 00:32 33.94623 -118.40279 90 ft 3 kts 248°
2026-04-20 00:32 33.94630 -118.40257 91 ft 3 kts 245°
2026-04-20 00:32 33.94637 -118.40241 90 ft 0 kts 242°
2026-04-20 00:35 33.94635 -118.40251 92 ft 2 kts 268°
2026-04-20 00:35 33.94637 -118.40254 91 ft 2 kts 315°
2026-04-20 00:35 33.94671 -118.40259 92 ft 10 kts 359°
2026-04-20 00:36 33.94746 -118.40264 90 ft 12 kts 354°
2026-04-20 00:36 33.94833 -118.40286 94 ft 13 kts 341°
2026-04-20 00:36 33.94898 -118.40262 92 ft 10 kts 64°
2026-04-20 00:36 33.94909 -118.40167 93 ft 14 kts 82°
2026-04-20 00:37 33.94922 -118.40036 91 ft 18 kts 84°
2026-04-20 00:37 33.94949 -118.39929 92 ft 12 kts 39°
2026-04-20 00:37 33.95022 -118.39915 91 ft 10 kts 352°
2026-04-20 00:37 33.95047 -118.39946 93 ft 4 kts 246°
2026-04-20 00:38 33.95039 -118.39982 91 ft 0 kts 264°
2026-04-20 00:38 33.95039 -118.39983 91 ft 1 kts 264°
2026-04-20 00:38 33.95038 -118.39993 91 ft 0 kts 264°
2026-04-20 00:39 33.95038 -118.39994 93 ft 1 kts 264°
2026-04-20 00:39 33.95011 -118.40236 97 ft 69 kts 264°
2026-04-20 00:40 33.94922 -118.41121 106 ft 139 kts 262°
2026-04-20 00:40 33.94767 -118.42411 596 ft 171 kts 259°
2026-04-20 00:40 33.94527 -118.43825 1269 ft 175 kts 256°
2026-04-20 00:40 33.94288 -118.45338 1291 ft 201 kts 259°
2026-04-20 00:41 33.94067 -118.47079 2294 ft 213 kts 261°
2026-04-20 00:41 33.93879 -118.48915 3162 ft 232 kts 259°
2026-04-20 00:41 33.93222 -118.50719 4014 ft 244 kts 228°
2026-04-20 00:41 33.92020 -118.52226 4945 ft 255 kts 218°
2026-04-20 00:42 33.90414 -118.53133 5851 ft 260 kts 186°
2026-04-20 00:42 33.88638 -118.52829 6856 ft 263 kts 154°
2026-04-20 00:42 33.87255 -118.51386 7819 ft 271 kts 124°
2026-04-20 00:42 33.86601 -118.49241 8736 ft 279 kts 106°
2026-04-20 00:43 33.86225 -118.46924 9597 ft 284 kts 103°
2026-04-20 00:43 33.85967 -118.45368 10114 ft 287 kts 105°
2026-04-20 00:43 33.85516 -118.42943 10520 ft 306 kts 105°
2026-04-20 00:43 33.85025 -118.40371 10887 ft 324 kts 105°
2026-04-20 00:44 33.84336 -118.36760 11415 ft 344 kts 105°
2026-04-20 00:44 33.83793 -118.33911 11864 ft 354 kts 105°
2026-04-20 00:44 33.83421 -118.31954 12270 ft 356 kts 105°
2026-04-20 00:44 33.82862 -118.29036 12759 ft 356 kts 105°
2026-04-20 00:45 33.82332 -118.26246 12858 ft 331 kts 106°
2026-04-20 00:45 33.81791 -118.23462 12938 ft 355 kts 105°
2026-04-20 00:45 33.81229 -118.20528 12975 ft 363 kts 105°
2026-04-20 00:45 33.80669 -118.17603 12980 ft 363 kts 105°
2026-04-20 00:46 33.80102 -118.14649 12966 ft 363 kts 105°
2026-04-20 00:46 33.79531 -118.11693 12940 ft 362 kts 105°
2026-04-20 00:46 33.78961 -118.08743 12951 ft 363 kts 105°
2026-04-20 00:46 33.78131 -118.05908 12924 ft 358 kts 122°
2026-04-20 00:47 33.76592 -118.03585 12940 ft 355 kts 136°
2026-04-20 00:47 33.74889 -118.01430 12997 ft 355 kts 136°
2026-04-20 00:47 33.73137 -117.99333 12992 ft 355 kts 137°
2026-04-20 00:47 33.71381 -117.97250 12987 ft 355 kts 137°
2026-04-20 00:48 33.69616 -117.95163 12990 ft 355 kts 137°
2026-04-20 00:48 33.67854 -117.93083 12995 ft 355 kts 137°
2026-04-20 00:48 33.66089 -117.90999 12992 ft 355 kts 137°
2026-04-20 00:48 33.64328 -117.88923 12987 ft 355 kts 137°
2026-04-20 00:49 33.62585 -117.86866 12991 ft 355 kts 137°
2026-04-20 00:49 33.60820 -117.84788 12996 ft 355 kts 137°
2026-04-20 00:49 33.59054 -117.82707 12994 ft 355 kts 137°
2026-04-20 00:49 33.57288 -117.80628 12987 ft 355 kts 137°
2026-04-20 00:50 33.55522 -117.78554 12987 ft 355 kts 137°
2026-04-20 00:50 33.53756 -117.76475 13000 ft 356 kts 137°
2026-04-20 00:50 33.51989 -117.74401 12992 ft 355 kts 137°
2026-04-20 00:50 33.50247 -117.72352 12985 ft 355 kts 137°
2026-04-20 00:51 33.48457 -117.70256 12984 ft 355 kts 137°
2026-04-20 00:51 33.46714 -117.68212 12987 ft 356 kts 137°
2026-04-20 00:51 33.44936 -117.66131 12994 ft 356 kts 137°
2026-04-20 00:51 33.43165 -117.64055 12979 ft 356 kts 137°
2026-04-20 00:52 33.41392 -117.61982 12981 ft 356 kts 137°
2026-04-20 00:52 33.39619 -117.59908 12995 ft 356 kts 137°
2026-04-20 00:52 33.37844 -117.57835 12995 ft 356 kts 137°
2026-04-20 00:52 33.36067 -117.55757 12981 ft 356 kts 137°
2026-04-20 00:53 33.34317 -117.53717 12984 ft 356 kts 137°
2026-04-20 00:53 33.32542 -117.51646 12995 ft 356 kts 137°
2026-04-20 00:53 33.30767 -117.49575 12990 ft 356 kts 137°
2026-04-20 00:53 33.28993 -117.47510 12971 ft 356 kts 137°
2026-04-20 00:54 33.27216 -117.45442 12966 ft 356 kts 137°
2026-04-20 00:54 33.25250 -117.43644 12973 ft 355 kts 148°
2026-04-20 00:54 33.23176 -117.42046 12978 ft 355 kts 147°
2026-04-20 00:54 33.21113 -117.40410 12968 ft 355 kts 147°
2026-04-20 00:55 33.19051 -117.38778 12969 ft 355 kts 147°
2026-04-20 00:55 33.16986 -117.37146 12622 ft 354 kts 147°
2026-04-20 00:55 33.15002 -117.35579 12206 ft 339 kts 147°
2026-04-20 00:55 33.13062 -117.34048 11797 ft 328 kts 147°
2026-04-20 00:56 33.11179 -117.32564 11392 ft 322 kts 147°
2026-04-20 00:56 33.09310 -117.31091 11006 ft 322 kts 147°
2026-04-20 00:56 33.07445 -117.29622 10628 ft 318 kts 147°
2026-04-20 00:56 33.05630 -117.28193 10245 ft 308 kts 147°
2026-04-20 00:57 33.03865 -117.26804 9846 ft 300 kts 147°
2026-04-20 00:57 33.02143 -117.25448 9465 ft 293 kts 147°
2026-04-20 00:57 33.00454 -117.24121 9107 ft 288 kts 147°
2026-04-20 00:57 32.98800 -117.22821 8749 ft 281 kts 147°
2026-04-20 00:58 32.97184 -117.21553 8399 ft 276 kts 147°
2026-04-20 00:58 32.95610 -117.20317 8061 ft 273 kts 147°
2026-04-20 00:58 32.94019 -117.19069 7725 ft 273 kts 147°
2026-04-20 00:58 32.92438 -117.17828 7387 ft 272 kts 147°
2026-04-20 00:59 32.90865 -117.16592 7054 ft 269 kts 148°
2026-04-20 00:59 32.89312 -117.15376 6726 ft 266 kts 148°
2026-04-20 00:59 32.87776 -117.14175 6404 ft 263 kts 148°
2026-04-20 00:59 32.86249 -117.12980 6121 ft 262 kts 148°
2026-04-20 01:00 32.84753 -117.11807 6028 ft 251 kts 148°
2026-04-20 01:00 32.83337 -117.10698 5974 ft 236 kts 148°
2026-04-20 01:00 32.81992 -117.09648 5969 ft 227 kts 148°
2026-04-20 01:00 32.80698 -117.08637 5970 ft 219 kts 148°
2026-04-20 01:01 32.79493 -117.07532 5987 ft 221 kts 133°
2026-04-20 01:01 32.78597 -117.06021 6000 ft 225 kts 124°
2026-04-20 01:01 32.77871 -117.04384 5943 ft 228 kts 116°
2026-04-20 01:01 32.77275 -117.02639 5765 ft 228 kts 114°
2026-04-20 01:02 32.76712 -117.00883 5570 ft 226 kts 113°
2026-04-20 01:02 32.76128 -116.99148 5256 ft 226 kts 120°
2026-04-20 01:02 32.75077 -116.97850 4987 ft 216 kts 155°
2026-04-20 01:02 32.73663 -116.97629 4737 ft 201 kts 188°
2026-04-20 01:03 32.72413 -116.98224 4475 ft 192 kts 216°
2026-04-20 01:03 32.71743 -116.99520 4202 ft 188 kts 257°
2026-04-20 01:03 32.71795 -117.01097 3868 ft 193 kts 272°
2026-04-20 01:03 32.71840 -117.02674 3450 ft 191 kts 258°
2026-04-20 01:04 32.71521 -117.04196 3025 ft 188 kts 253°
2026-04-20 01:04 32.71219 -117.05693 2584 ft 185 kts 262°
2026-04-20 01:04 32.71192 -117.07197 2169 ft 178 kts 271°
2026-04-20 01:04 32.71247 -117.08563 1931 ft 159 kts 273°
2026-04-20 01:05 32.71352 -117.09823 1751 ft 150 kts 276°
2026-04-20 01:05 32.71506 -117.11055 1578 ft 151 kts 278°
2026-04-20 01:05 32.71671 -117.12244 1389 ft 139 kts 278°
2026-04-20 01:05 32.71896 -117.13295 1248 ft 129 kts 287°
2026-04-20 01:06 32.72181 -117.14313 1003 ft 131 kts 285°
2026-04-20 01:06 32.72462 -117.15348 780 ft 131 kts 285°
2026-04-20 01:06 32.72722 -117.16379 512 ft 131 kts 283°
2026-04-20 01:06 32.72977 -117.17438 198 ft 135 kts 284°
2026-04-20 01:07 32.73231 -117.18455 23 ft 117 kts 283°
2026-04-20 01:07 32.73427 -117.19284 20 ft 88 kts 285°
2026-04-20 01:07 32.73516 -117.19683 23 ft 27 kts 284°
2026-04-20 01:07 32.73521 -117.19781 23 ft 12 kts 256°
2026-04-20 01:08 32.73496 -117.19866 21 ft 7 kts 250°
2026-04-20 01:08 32.73493 -117.19875 21 ft 1 kts 253°
2026-04-20 01:08 32.73485 -117.19906 21 ft 8 kts 253°
2026-04-20 01:08 32.73452 -117.19954 21 ft 7 kts 185°
2026-04-20 01:09 32.73398 -117.19971 20 ft 9 kts 194°
2026-04-20 01:09 32.73329 -117.19988 20 ft 10 kts 182°
2026-04-20 01:09 32.73278 -117.20003 20 ft 6 kts 233°